Location: Dugenta
(41.1333°N, 14.4500°E)
Time: 10:33:19
(UTC+00:00)

MOS 1 - Pass Details

Date: 03 March 2021
Orbit: 878 x 891 km, 99.1° (Epoch: 20 April)

Event Time Altitude Azimuth Distance (km) Brightness Sun altitude
Exits shadow 19:26:08 53° 200° (SSW) 1,083 4.6 -28.8°
Maximum altitude 19:27:22 68° 257° (WSW) 953 4.5 -29.1°
Drops below altitude 10° 19:33:02 10° 341° (NNW) 2,557 7.1 -30.1°
Sets 19:35:28 0° 344° (NNW) 3,498 7.9 -30.5°
